User: anonymous   Login
Location: Unspecified
(48.8656°N, 0.0000°E)
Time: 12:49:46
(UTC+00:00)
Language:

SR - Orbit

View from above orbital plane
View from above orbital plane
View from above satellite
View from above satellite

Ground track
Ground track

The orbit data is extracted from the following two-line orbital elements,

1    46U 60007B   19289.54776486  .00000030  00000-0  28963-4 0  9994
2    46  66.6917 348.2628 0215643 312.3133  45.9874 14.49249701103616
Epoch (UTC): 16 October 2019 13:08:46
Eccentricity: 0.0215643
inclination: 66.6917°
perigee height: 575 km
apogee height: 881 km
right ascension of ascending node: 348.2628°
argument of perigee: 312.3133°
revolutions per day: 14.49249701
mean anomaly at epoch: 45.9874°
orbit number at epoch: 10361

The dashed part of the orbit path shows where the satellite is in the earth's shadow,  

DLR